Project,Study,Ord_Occ,Event_Num,Cast_ID,Date_Time_UTC,Date_Time_PST,Lat_Dec,Lon_Dec,Sta_ID,Line,Sta,Depth,Pressure,PrQ,Temp1,Temp1Q,Temp2,Temp2Q,TempAve,Salt1,Salt1Q,Salt1_Corr,Salt2,Salt2Q,Salt2_Corr,SaltAve_Corr,Ox1,Ox1Q,Ox1_CruiseCorr,Ox1_StaCorr,Ox2,Ox2Q,Ox2_CruiseCorr,Ox2_StaCorr,OxAve_StaCorr,Ox1uM,Ox1uM_CruiseCorr,Ox1uM_StaCorr,Ox2uM,Ox2uM_CruiseCorr,Ox2uM_StaCorr,OxAveuM_StaCorr,FluorV,FluorQ,EstChl_CruiseCorr,EstChl_StaCorr,ISUSV,ISUSQ,EstNO3_CruiseCorr,EstNO3_StaCorr,SigThetaTS1,SigThetaTS1Q,SigThetaTS2,SigThetaTS2Q,BAT,XMiss,TransQ,pH,pHQ,SPAR,SPARQ,PAR,PARQ,PoT1,PoT2,DynHt,SVA,OxSat1,OxSat2,BTL_Depth,BTL_Temp,SaltB,OxB,OxBuM,Chl-a,Phaeo,NO3,NO2,NH4,PO4,SIL
CalCOFI,2105SH,033,,2105_033d,11-May-2021 17:29:53,11-May-2021 09:29:53,32.81368,-123.90782,080.0 100.0,080.0,100.0,4.000,4.028,,13.9723,,13.9724,,13.9724,32.9602,,32.9614,32.9598,,32.9617,32.9616,5.7312,,6.0598,6.1231,5.8166,,6.0842,6.1195,6.1213,249.807,263.6470,264.7256,253.526,274.9208,264.7706,264.7481,0.0645,,0.2575,0.2085,2.5986,,0.3234,,24.6170,,24.6166,,,,,,,,,,,13.9717,13.9718,0.0098,331.354,97.388,98.838,3,13.976,32.9559,6.056,263.96,0.338,0.091,0.27,0.036,0.00,0.37,1.65
CalCOFI,2105SH,033,,2105_033d,11-May-2021 17:30:02,11-May-2021 09:30:02,32.81363,-123.90782,080.0 100.0,080.0,100.0,5.000,5.035,,13.9739,,13.9780,,13.9760,32.9601,,32.9613,32.9600,,32.9619,32.9616,5.7410,,6.0700,6.1334,5.8162,,6.0838,6.1191,6.1263,250.235,264.0945,265.1693,253.510,275.3830,264.7542,264.9618,0.0641,,0.2546,0.2067,2.5986,,0.3234,,24.6166,,24.6157,,,,,,,,,,,13.9732,13.9772,0.0158,331.421,97.558,98.843,,,,,,,,,,,,
CalCOFI,2105SH,033,,2105_033d,11-May-2021 17:30:04,11-May-2021 09:30:04,32.81362,-123.90783,080.0 100.0,080.0,100.0,6.000,6.043,,13.9732,,13.9714,,13.9723,32.9603,,32.9615,32.9598,,32.9617,32.9616,5.7578,,6.0876,6.1510,5.8152,,6.0828,6.1180,6.1345,250.963,264.8555,265.9240,253.466,276.1692,264.7091,265.3166,0.0681,,0.2839,0.2246,2.5985,,0.3234,,24.6169,,24.6169,,,,,,,,,,,13.9724,13.9705,0.0192,331.413,97.841,98.813,,,,,,,,,,,,
CalCOFI,2105SH,033,,2105_033d,11-May-2021 17:30:06,11-May-2021 09:30:06,32.81360,-123.90784,080.0 100.0,080.0,100.0,7.000,7.050,,13.9705,,13.9709,,13.9707,32.9602,,32.9614,32.9597,,32.9616,32.9615,5.7401,,6.0691,6.1324,5.8159,,6.0835,6.1188,6.1256,250.195,264.0527,265.1278,253.496,275.3398,264.7398,264.9338,0.0692,,0.2920,0.2295,2.5984,,0.3234,,24.6174,,24.6170,,,,,,,,,,,13.9695,13.9700,0.0226,331.395,97.536,98.823,,,,,,,,,,,,
CalCOFI,2105SH,033,,2105_033d,11-May-2021 17:30:08,11-May-2021 09:30:08,32.81358,-123.90784,080.0 100.0,080.0,100.0,8.000,8.057,,13.9708,,13.9716,,13.9712,32.9603,,32.9615,32.9600,,32.9619,32.9617,5.7443,,6.0735,6.1368,5.8132,,6.0807,6.1160,6.1264,250.375,264.2408,265.3144,253.379,275.5342,264.6201,264.9673,0.0715,,0.3088,0.2397,2.5982,,0.3234,,24.6175,,24.6171,,,,,,,,,,,13.9697,13.9705,0.0259,331.417,97.607,98.779,,,,,,,,,,,,
CalCOFI,2105SH,033,,2105_033d,11-May-2021 17:30:09,11-May-2021 09:30:09,32.81358,-123.90784,080.0 100.0,080.0,100.0,9.000,9.064,,13.9716,,13.9718,,13.9717,32.9603,,32.9615,32.9600,,32.9619,32.9617,5.7385,,6.0674,6.1308,5.8151,,6.0827,6.1179,6.1244,250.125,263.9795,265.0552,253.465,275.2642,264.7081,264.8817,0.0725,,0.3161,0.2442,2.5981,,0.3234,,24.6173,,24.6170,,,,,,,,,,,13.9703,13.9706,0.0292,331.461,97.511,98.813,,,,,,,,,,,,
CalCOFI,2105SH,033,,2105_033d,11-May-2021 17:30:11,11-May-2021 09:30:11,32.81358,-123.90784,080.0 100.0,080.0,100.0,10.000,10.071,,13.9709,,13.9712,,13.9711,32.9602,,32.9614,32.9599,,32.9618,32.9616,5.7446,,6.0738,6.1372,5.8137,,6.0812,6.1165,6.1269,250.391,264.2576,265.3310,253.402,275.5515,264.6436,264.9873,0.0719,,0.3117,0.2415,2.5978,,0.3234,,24.6175,,24.6171,,,,,,,,,,,13.9695,13.9698,0.0326,331.477,97.613,98.787,,,,,,,,,,,,
CalCOFI,2105SH,033,,2105_033d,11-May-2021 17:30:12,11-May-2021 09:30:12,32.81357,-123.90784,080.0 100.0,080.0,100.0,11.000,11.078,,13.9706,,13.9714,,13.9710,32.9603,,32.9615,32.9598,,32.9617,32.9616,5.7269,,6.0553,6.1186,5.8119,,6.0794,6.1146,6.1166,249.620,263.4515,264.5317,253.323,274.7188,264.5627,264.5472,0.0768,,0.3475,0.2634,2.5975,,0.3234,,24.6176,,24.6171,,,,,,,,,,,13.9690,13.9698,0.0359,331.493,97.312,98.757,11,13.972,,,263.88,0.391,0.107,0.13,0.032,0.08,0.36,1.35
CalCOFI,2105SH,033,,2105_033d,11-May-2021 17:30:15,11-May-2021 09:30:15,32.81355,-123.90784,080.0 100.0,080.0,100.0,12.000,12.085,,13.9716,,13.9719,,13.9718,32.9603,,32.9615,32.9598,,32.9617,32.9616,5.7319,,6.0605,6.1239,5.8157,,6.0833,6.1185,6.1212,249.835,263.6763,264.7546,253.487,274.9510,264.7306,264.7426,0.0821,,0.3860,0.2871,2.5969,,0.3234,,24.6174,,24.6170,,,,,,,,,,,13.9699,13.9702,0.0392,331.539,97.398,98.822,,,,,,,,,,,,
CalCOFI,2105SH,033,,2105_033d,11-May-2021 17:30:17,11-May-2021 09:30:17,32.81353,-123.90785,080.0 100.0,080.0,100.0,13.000,13.093,,13.9694,,13.9696,,13.9695,32.9603,,32.9615,32.9598,,32.9617,32.9616,5.7289,,6.0574,6.1207,5.8067,,6.0740,6.1092,6.1150,249.703,263.5383,264.6177,253.096,274.8084,264.3303,264.4740,0.0871,,0.4223,0.3095,2.5964,,0.3234,,24.6179,,24.6175,,,,,,,,,,,13.9675,13.9678,0.0426,331.516,97.342,98.665,,,,,,,,,,,,
CalCOFI,2105SH,033,,2105_033d,11-May-2021 17:30:19,11-May-2021 09:30:19,32.81352,-123.90786,080.0 100.0,080.0,100.0,14.000,14.100,,13.9695,,13.9699,,13.9697,32.9602,,32.9614,32.9599,,32.9618,32.9616,5.7072,,6.0347,6.0980,5.8119,,6.0794,6.1146,6.1063,248.758,262.5504,263.6381,253.321,273.7878,264.5607,264.0994,0.0915,,0.4540,0.3291,2.5962,,0.3234,,24.6179,,24.6175,,,,,,,,,,,13.9675,13.9679,0.0459,331.552,96.974,98.753,,,,,,,,,,,,
CalCOFI,2105SH,033,,2105_033d,11-May-2021 17:30:20,11-May-2021 09:30:20,32.81350,-123.90786,080.0 100.0,080.0,100.0,15.000,15.107,,13.9690,,13.9695,,13.9693,32.9603,,32.9615,32.9599,,32.9618,32.9617,5.6943,,6.0212,6.0845,5.8153,,6.0829,6.1181,6.1013,248.196,261.9629,263.0554,253.470,273.1809,264.7132,263.8843,0.0979,,0.5001,0.3577,2.5960,,0.3234,,24.6180,,24.6176,,,,,,,,,,,13.9669,13.9674,0.0493,331.564,96.754,98.810,,,,,,,,,,,,
CalCOFI,2105SH,033,,2105_033d,11-May-2021 17:30:21,11-May-2021 09:30:21,32.81350,-123.90786,080.0 100.0,080.0,100.0,16.000,16.114,,13.9692,,13.9697,,13.9695,32.9604,,32.9616,32.9600,,32.9619,32.9618,5.7171,,6.0450,6.1084,5.8192,,6.0869,6.1222,6.1153,249.192,263.0041,264.0880,253.643,274.2566,264.8904,264.4892,0.0949,,0.4785,0.3443,2.5958,,0.3234,,24.6181,,24.6177,,,,,,,,,,,13.9669,13.9674,0.0526,331.584,97.142,98.878,,,,,,,,,,,,
CalCOFI,2105SH,033,,2105_033d,11-May-2021 17:30:23,11-May-2021 09:30:23,32.81350,-123.90786,080.0 100.0,080.0,100.0,17.000,17.121,,13.9677,,13.9679,,13.9678,32.9604,,32.9616,32.9598,,32.9617,32.9617,5.7466,,6.0759,6.1393,5.8180,,6.0857,6.1209,6.1301,250.476,264.3464,265.4191,253.588,275.6433,264.8340,265.1266,0.1015,,0.5260,0.3738,2.5955,,0.3234,,24.6185,,24.6180,,,,,,,,,,,13.9653,13.9655,0.0559,331.578,97.640,98.853,,,,,,,,,,,,
CalCOFI,2105SH,033,,2105_033d,11-May-2021 17:30:26,11-May-2021 09:30:26,32.81347,-123.90786,080.0 100.0,080.0,100.0,18.000,18.128,,13.9633,,13.9639,,13.9636,32.9603,,32.9615,32.9598,,32.9617,32.9616,5.7406,,6.0696,6.1330,5.8134,,6.0809,6.1162,6.1246,250.215,264.0736,265.1485,253.387,275.3614,264.6283,264.8884,0.1115,,0.5974,0.4185,2.5952,,0.3234,,24.6193,,24.6188,,,,,,,,,,,13.9608,13.9613,0.0593,331.523,97.530,98.767,,,,,,,,,,,,
CalCOFI,2105SH,033,,2105_033d,11-May-2021 17:30:27,11-May-2021 09:30:27,32.81346,-123.90787,080.0 100.0,080.0,100.0,19.000,19.136,,13.9631,,13.9632,,13.9632,32.9605,,32.9617,32.9601,,32.9620,32.9619,5.7129,,6.0407,6.1040,5.8133,,6.0808,6.1161,6.1101,249.010,262.8139,263.8993,253.385,274.0600,264.6262,264.2628,0.1047,,0.5489,0.3881,2.5950,,0.3234,,24.6196,,24.6192,,,,,,,,,,,13.9604,13.9605,0.0626,331.529,97.059,98.765,,,,,,,,,,,,
CalCOFI,2105SH,033,,2105_033d,11-May-2021 17:30:28,11-May-2021 09:30:28,32.81346,-123.90788,080.0 100.0,080.0,100.0,20.000,20.143,,13.9634,,13.9641,,13.9638,32.9605,,32.9617,32.9602,,32.9621,32.9619,5.7167,,6.0446,6.1079,5.8104,,6.0778,6.1131,6.1105,249.174,262.9853,264.0693,253.258,274.2371,264.4962,264.2828,0.1048,,0.5496,0.3885,2.5949,,0.3234,,24.6195,,24.6191,,,,,,,,,,,13.9605,13.9612,0.0660,331.560,97.124,98.717,,,,,,,,,,,,
CalCOFI,2105SH,033,,2105_033d,11-May-2021 17:30:30,11-May-2021 09:30:30,32.81345,-123.90788,080.0 100.0,080.0,100.0,21.000,21.150,,13.9646,,13.9653,,13.9650,32.9605,,32.9617,32.9600,,32.9619,32.9618,5.7176,,6.0456,6.1089,5.8138,,6.0813,6.1166,6.1128,249.214,263.0271,264.1108,253.408,274.2803,264.6497,264.3803,0.1109,,0.5931,0.4158,2.5947,,0.3234,,24.6193,,24.6188,,,,,,,,,,,13.9617,13.9623,0.0693,331.612,97.142,98.778,,,,,,,,,,,,
CalCOFI,2105SH,033,,2105_033d,11-May-2021 17:30:33,11-May-2021 09:30:33,32.81344,-123.90788,080.0 100.0,080.0,100.0,22.000,22.157,,13.9620,,13.9620,,13.9620,32.9607,,32.9619,32.9603,,32.9622,32.9621,5.7504,,6.0799,6.1432,5.8154,,6.0830,6.1182,6.1307,250.642,264.5199,265.5912,253.475,275.8226,264.7184,265.1548,0.1118,,0.5995,0.4198,2.5943,,0.3234,,24.6200,,24.6197,,,,,,,,,,,13.9589,13.9589,0.0726,331.574,97.694,98.798,,,,,,,,,,,,
CalCOFI,2105SH,033,,2105_033d,11-May-2021 17:30:34,11-May-2021 09:30:34,32.81344,-123.90788,080.0 100.0,080.0,100.0,23.000,23.164,,13.9622,,13.9617,,13.9620,32.9608,,32.9620,32.9605,,32.9624,32.9622,5.7452,,6.0744,6.1378,5.8160,,6.0836,6.1189,6.1284,250.415,264.2826,265.3559,253.502,275.5774,264.7460,265.0510,0.1073,,0.5674,0.3997,2.5941,,0.3234,,24.6200,,24.6200,,,,,,,,,,,13.9589,13.9584,0.0760,331.595,97.606,98.808,,,,,,,,,,,,
CalCOFI,2105SH,033,,2105_033d,11-May-2021 17:30:35,11-May-2021 09:30:35,32.81342,-123.90789,080.0 100.0,080.0,100.0,24.000,24.171,,13.9594,,13.9597,,13.9596,32.9614,,32.9626,32.9610,,32.9629,32.9628,5.7351,,6.0639,6.1272,5.8191,,6.0868,6.1221,6.1247,249.975,263.8227,264.8997,253.636,275.1022,264.8832,264.8915,0.1130,,0.6081,0.4252,2.5940,,0.3234,,24.6211,,24.6208,,,,,,,,,,,13.9560,13.9563,0.0793,331.520,97.429,98.856,,,,,,,,,,,,
CalCOFI,2105SH,033,,2105_033d,11-May-2021 17:30:36,11-May-2021 09:30:36,32.81341,-123.90790,080.0 100.0,080.0,100.0,25.000,25.179,,13.9582,,13.9588,,13.9585,32.9615,,32.9627,32.9611,,32.9630,32.9629,5.7243,,6.0526,6.1159,5.8223,,6.0901,6.1254,6.1207,249.504,263.3303,264.4114,253.777,274.5935,265.0276,264.7195,0.1194,,0.6535,0.4538,2.5937,,0.3234,,24.6215,,24.6210,,,,,,,,,,,13.9547,13.9552,0.0827,331.511,97.243,98.909,,,,,,,,,,,,
CalCOFI,2105SH,033,,2105_033d,11-May-2021 17:30:40,11-May-2021 09:30:40,32.81340,-123.90789,080.0 100.0,080.0,100.0,26.000,26.186,,13.9606,,13.9619,,13.9613,32.9613,,32.9625,32.9609,,32.9628,32.9627,5.7246,,6.0529,6.1162,5.8085,,6.0758,6.1111,6.1137,249.516,263.3428,264.4239,253.174,274.6065,264.4102,264.4171,0.1227,,0.6768,0.4685,2.5930,,0.3234,,24.6209,,24.6203,,,,,,,,,,,13.9569,13.9582,0.0861,331.601,97.253,98.681,,,,,,,,,,,,
CalCOFI,2105SH,033,,2105_033d,11-May-2021 17:30:42,11-May-2021 09:30:42,32.81338,-123.90789,080.0 100.0,080.0,100.0,27.000,27.193,,13.9644,,13.9647,,13.9646,32.9610,,32.9622,32.9606,,32.9625,32.9624,5.7501,,6.0796,6.1429,5.8145,,6.0821,6.1173,6.1301,250.627,264.5043,265.5756,253.437,275.8064,264.6794,265.1275,0.1126,,0.6052,0.4234,2.5925,,0.3234,,24.6199,,24.6195,,,,,,,,,,,13.9606,13.9608,0.0896,331.721,97.693,98.789,,,,,,,,,,,,
CalCOFI,2105SH,033,,2105_033d,11-May-2021 17:30:43,11-May-2021 09:30:43,32.81337,-123.90790,080.0 100.0,080.0,100.0,28.000,28.200,,13.9655,,13.9656,,13.9656,32.9609,,32.9621,32.9606,,32.9625,32.9623,5.7629,,6.0929,6.1563,5.8125,,6.0800,6.1152,6.1358,251.188,265.0907,266.1572,253.351,276.4122,264.5914,265.3743,0.1113,,0.5960,0.4176,2.5924,,0.3234,,24.6196,,24.6194,,,,,,,,,,,13.9615,13.9617,0.0929,331.779,97.914,98.757,,,,,,,,,,,,
CalCOFI,2105SH,033,,2105_033d,11-May-2021 17:30:44,11-May-2021 09:30:44,32.81336,-123.90790,080.0 100.0,080.0,100.0,29.000,29.208,,13.9643,,13.9645,,13.9644,32.9611,,32.9623,32.9607,,32.9626,32.9625,5.7544,,6.0841,6.1474,5.8134,,6.0809,6.1162,6.1318,250.819,264.7050,265.7747,253.387,276.0137,264.6283,265.2015,0.1109,,0.5931,0.4158,2.5922,,0.3234,,24.6200,,24.6197,,,,,,,,,,,13.9601,13.9604,0.0962,331.765,97.767,98.769,,,,,,,,,,,,
CalCOFI,2105SH,033,,2105_033d,11-May-2021 17:30:45,11-May-2021 09:30:45,32.81336,-123.90790,080.0 100.0,080.0,100.0,30.000,30.215,,13.9647,,13.9663,,13.9655,32.9610,,32.9622,32.9607,,32.9626,32.9624,5.7356,,6.0644,6.1277,5.8139,,6.0814,6.1167,6.1222,249.999,263.8478,264.9246,253.410,275.1281,264.6518,264.7882,0.1179,,0.6428,0.4471,2.5921,,0.3234,,24.6199,,24.6194,,,,,,,,,,,13.9604,13.9620,0.0996,331.803,97.449,98.781,,,,,,,,,,,,
CalCOFI,2105SH,033,,2105_033d,11-May-2021 17:30:48,11-May-2021 09:30:48,32.81335,-123.90790,080.0 100.0,080.0,100.0,31.000,31.222,,13.9653,,13.9656,,13.9655,32.9610,,32.9622,32.9606,,32.9625,32.9624,5.7348,,6.0636,6.1269,5.8135,,6.0810,6.1163,6.1216,249.962,263.8091,264.8862,253.393,275.0882,264.6344,264.7603,0.1136,,0.6123,0.4279,2.5915,,0.3234,,24.6198,,24.6195,,,,,,,,,,,13.9609,13.9612,0.1042,331.842,97.436,98.773,31,13.960,,,263.57,0.380,0.125,0.10,0.035,0.00,0.35,1.32
CalCOFI,2105SH,033,,2105_033d,11-May-2021 17:30:52,11-May-2021 09:30:52,32.81334,-123.90790,080.0 100.0,080.0,100.0,32.000,32.229,,13.9626,,13.9620,,13.9623,32.9615,,32.9627,32.9611,,32.9630,32.9629,5.7190,,6.0470,6.1103,5.8084,,6.0757,6.1110,6.1107,249.271,263.0867,264.1699,253.170,274.3419,264.4061,264.2880,0.1118,,0.5995,0.4198,2.5910,,0.3234,,24.6208,,24.6206,,,,,,,,,,,13.9581,13.9574,0.1094,331.780,97.161,98.679,,,,,,,,,,,,
CalCOFI,2105SH,033,,2105_033d,11-May-2021 17:30:53,11-May-2021 09:30:53,32.81332,-123.90790,080.0 100.0,080.0,100.0,33.000,33.236,,13.9646,,13.9661,,13.9654,32.9610,,32.9622,32.9607,,32.9626,32.9624,5.7197,,6.0478,6.1111,5.8114,,6.0788,6.1141,6.1126,249.305,263.1222,264.2051,253.300,274.3786,264.5392,264.3722,0.1134,,0.6109,0.4270,2.5908,,0.3234,,24.6201,,24.6195,,,,,,,,,,,13.9599,13.9614,0.1127,331.874,97.178,98.738,,,,,,,,,,,,
CalCOFI,2105SH,033,,2105_033d,11-May-2021 17:30:54,11-May-2021 09:30:54,32.81332,-123.90790,080.0 100.0,080.0,100.0,34.000,34.244,,13.9599,,13.9603,,13.9601,32.9617,,32.9629,32.9612,,32.9631,32.9630,5.7170,,6.0449,6.1082,5.8180,,6.0857,6.1209,6.1146,249.186,262.9978,264.0818,253.587,274.2501,264.8330,264.4574,0.1159,,0.6287,0.4381,2.5907,,0.3234,,24.6216,,24.6211,,,,,,,,,,,13.9551,13.9555,0.1161,331.759,97.123,98.839,,,,,,,,,,,,
CalCOFI,2105SH,033,,2105_033d,11-May-2021 17:30:55,11-May-2021 09:30:55,32.81331,-123.90790,080.0 100.0,080.0,100.0,35.000,35.251,,13.9595,,13.9599,,13.9597,32.9615,,32.9627,32.9612,,32.9631,32.9629,5.7203,,6.0484,6.1117,5.8097,,6.0771,6.1123,6.1120,249.332,263.1505,264.2331,253.227,274.4078,264.4644,264.3488,0.1251,,0.6938,0.4793,2.5904,,0.3234,,24.6215,,24.6212,,,,,,,,,,,13.9545,13.9550,0.1194,331.791,97.179,98.697,,,,,,,,,,,,
CalCOFI,2105SH,033,,2105_033d,11-May-2021 17:30:58,11-May-2021 09:30:58,32.81329,-123.90790,080.0 100.0,080.0,100.0,36.000,36.258,,13.9563,,13.9568,,13.9566,32.9622,,32.9634,32.9617,,32.9636,32.9635,5.7230,,6.0512,6.1145,5.8108,,6.0782,6.1135,6.1140,249.449,263.2728,264.3544,253.274,274.5341,264.5126,264.4335,0.1228,,0.6775,0.4690,2.5897,,0.3234,,24.6227,,24.6222,,,,,,,,,,,13.9512,13.9517,0.1227,331.704,97.219,98.710,,,,,,,,,,,,
CalCOFI,2105SH,033,,2105_033d,11-May-2021 17:31:02,11-May-2021 09:31:02,32.81326,-123.90790,080.0 100.0,080.0,100.0,37.000,37.265,,13.9562,,13.9572,,13.9567,32.9623,,32.9635,32.9617,,32.9636,32.9636,5.7525,,6.0821,6.1454,5.8062,,6.0735,6.1087,6.1271,250.732,264.6140,265.6845,253.073,275.9198,264.3068,264.9957,0.1212,,0.6662,0.4618,2.5888,,0.3234,,24.6229,,24.6222,,,,,,,,,,,13.9510,13.9519,0.1261,331.719,97.719,98.633,,,,,,,,,,,,
CalCOFI,2105SH,033,,2105_033d,11-May-2021 17:31:03,11-May-2021 09:31:03,32.81326,-123.90792,080.0 100.0,080.0,100.0,38.000,38.273,,13.9566,,13.9570,,13.9568,32.9622,,32.9634,32.9618,,32.9637,32.9636,5.7663,,6.0965,6.1599,5.8052,,6.0724,6.1077,6.1338,251.334,265.2434,266.3086,253.030,276.5699,264.2628,265.2857,0.1192,,0.6521,0.4529,2.5885,,0.3234,,24.6228,,24.6224,,,,,,,,,,,13.9512,13.9516,0.1294,331.757,97.954,98.615,,,,,,,,,,,,
CalCOFI,2105SH,033,,2105_033d,11-May-2021 17:31:04,11-May-2021 09:31:04,32.81326,-123.90792,080.0 100.0,080.0,100.0,39.000,39.280,,13.9557,,13.9559,,13.9558,32.9623,,32.9635,32.9621,,32.9640,32.9638,5.7603,,6.0902,6.1536,5.8147,,6.0823,6.1175,6.1356,251.071,264.9684,266.0359,253.445,276.2859,264.6876,265.3618,0.1200,,0.6577,0.4565,2.5883,,0.3234,,24.6231,,24.6229,,,,,,,,,,,13.9502,13.9504,0.1328,331.755,97.850,98.775,,,,,,,,,,,,
CalCOFI,2105SH,033,,2105_033d,11-May-2021 17:31:05,11-May-2021 09:31:05,32.81325,-123.90792,080.0 100.0,080.0,100.0,40.000,40.287,,13.9539,,13.9540,,13.9540,32.9628,,32.9640,32.9624,,32.9643,32.9642,5.7483,,6.0777,6.1410,5.8146,,6.0822,6.1174,6.1292,250.550,264.4238,265.4958,253.439,275.7232,264.6815,265.0887,0.1248,,0.6916,0.4779,2.5880,,0.3234,,24.6238,,24.6235,,,,,,,,,,,13.9483,13.9483,0.1361,331.714,97.644,98.769,,,,,,,,,,,,
CalCOFI,2105SH,033,,2105_033d,11-May-2021 17:31:08,11-May-2021 09:31:08,32.81323,-123.90792,080.0 100.0,080.0,100.0,41.000,41.295,,13.9517,,13.9522,,13.9520,32.9631,,32.9643,32.9627,,32.9646,32.9645,5.7471,,6.0764,6.1398,5.8122,,6.0797,6.1149,6.1274,250.499,264.3705,265.4429,253.334,275.6681,264.5740,265.0085,0.1321,,0.7430,0.5105,2.5874,,0.3234,,24.6246,,24.6242,,,,,,,,,,,13.9459,13.9463,0.1395,331.669,97.620,98.725,,,,,,,,,,,,
CalCOFI,2105SH,033,,2105_033d,11-May-2021 17:31:10,11-May-2021 09:31:10,32.81321,-123.90793,080.0 100.0,080.0,100.0,42.000,42.302,,13.9509,,13.9511,,13.9510,32.9633,,32.9645,32.9630,,32.9649,32.9647,5.7466,,6.0759,6.1393,5.8080,,6.0753,6.1106,6.1250,250.475,264.3454,265.4181,253.149,275.6422,264.3846,264.9014,0.1263,,0.7022,0.4846,2.5871,,0.3234,,24.6249,,24.6246,,,,,,,,,,,13.9450,13.9451,0.1428,331.667,97.609,98.651,,,,,,,,,,,,
CalCOFI,2105SH,033,,2105_033d,11-May-2021 17:31:12,11-May-2021 09:31:12,32.81320,-123.90792,080.0 100.0,080.0,100.0,43.000,43.309,,13.9483,,13.9485,,13.9484,32.9639,,32.9651,32.9636,,32.9655,32.9653,5.7343,,6.0630,6.1264,5.8116,,6.0791,6.1143,6.1204,249.940,263.7861,264.8634,253.307,275.0644,264.5464,264.7049,0.1246,,0.6902,0.4770,2.5869,,0.3234,,24.6260,,24.6256,,,,,,,,,,,13.9422,13.9425,0.1461,331.592,97.396,98.708,,,,,,,,,,,,
CalCOFI,2105SH,033,,2105_033d,11-May-2021 17:31:13,11-May-2021 09:31:13,32.81320,-123.90792,080.0 100.0,080.0,100.0,44.000,44.316,,13.9456,,13.9455,,13.9456,32.9646,,32.9658,32.9643,,32.9662,32.9660,5.7386,,6.0675,6.1309,5.8121,,6.0796,6.1148,6.1229,250.126,263.9805,265.0562,253.329,275.2653,264.5689,264.8126,0.1286,,0.7184,0.4949,2.5866,,0.3234,,24.6270,,24.6268,,,,,,,,,,,13.9394,13.9392,0.1495,331.517,97.463,98.711,,,,,,,,,,,,
CalCOFI,2105SH,033,,2105_033d,11-May-2021 17:31:16,11-May-2021 09:31:16,32.81319,-123.90792,080.0 100.0,080.0,100.0,45.000,45.324,,13.9370,,13.9380,,13.9375,32.9651,,32.9663,32.9641,,32.9660,32.9662,5.7276,,6.0560,6.1194,5.8080,,6.0753,6.1106,6.1150,249.646,263.4787,264.5586,253.149,274.7469,264.3846,264.4716,0.1264,,0.7029,0.4851,2.5861,,0.3234,,24.6292,,24.6283,,,,,,,,,,,13.9307,13.9316,0.1528,331.335,97.260,98.626,,,,,,,,,,,,
CalCOFI,2105SH,033,,2105_033d,11-May-2021 17:31:18,11-May-2021 09:31:18,32.81317,-123.90792,080.0 100.0,080.0,100.0,46.000,46.331,,13.9107,,13.9106,,13.9107,32.9659,,32.9671,32.9648,,32.9667,32.9669,5.7376,,6.0665,6.1298,5.8173,,6.0850,6.1202,6.1250,250.079,263.9314,265.0075,253.554,275.2145,264.7992,264.9034,0.1231,,0.6796,0.4703,2.5856,,0.3234,,24.6353,,24.6345,,,,,,,,,,,13.9041,13.9041,0.1561,330.786,97.377,98.729,,,,,,,,,,,,
CalCOFI,2105SH,033,,2105_033d,11-May-2021 17:31:20,11-May-2021 09:31:20,32.81316,-123.90794,080.0 100.0,080.0,100.0,47.000,47.338,,13.9032,,13.9040,,13.9036,32.9660,,32.9672,32.9650,,32.9669,32.9671,5.7382,,6.0671,6.1305,5.8155,,6.0831,6.1183,6.1244,250.108,263.9617,265.0376,253.474,275.2458,264.7173,264.8775,0.1269,,0.7064,0.4873,2.5853,,0.3234,,24.6369,,24.6360,,,,,,,,,,,13.8966,13.8973,0.1595,330.657,97.374,98.685,,,,,,,,,,,,
CalCOFI,2105SH,033,,2105_033d,11-May-2021 17:31:21,11-May-2021 09:31:21,32.81315,-123.90794,080.0 100.0,080.0,100.0,48.000,48.346,,13.8998,,13.8998,,13.8998,32.9660,,32.9672,32.9649,,32.9668,32.9670,5.7239,,6.0522,6.1155,5.8120,,6.0795,6.1147,6.1151,249.482,263.3073,264.3886,253.320,274.5698,264.5597,264.4742,0.1240,,0.6860,0.4743,2.5849,,0.3234,,24.6377,,24.6369,,,,,,,,,,,13.8930,13.8930,0.1628,330.613,97.124,98.617,,,,,,,,,,,,
CalCOFI,2105SH,033,,2105_033d,11-May-2021 17:31:23,11-May-2021 09:31:23,32.81314,-123.90794,080.0 100.0,080.0,100.0,49.000,49.353,,13.8842,,13.8849,,13.8846,32.9667,,32.9679,32.9656,,32.9675,32.9677,5.7364,,6.0652,6.1286,5.8133,,6.0808,6.1161,6.1224,250.027,263.8770,264.9536,253.380,275.1584,264.6211,264.7874,0.1239,,0.6853,0.4739,2.5844,,0.3234,,24.6414,,24.6405,,,,,,,,,,,13.8773,13.8780,0.1661,330.281,97.306,98.611,,,,,,,,,,,,
CalCOFI,2105SH,033,,2105_033d,11-May-2021 17:31:27,11-May-2021 09:31:27,32.81312,-123.90794,080.0 100.0,080.0,100.0,50.000,50.360,,13.8599,,13.8577,,13.8588,32.9694,,32.9706,32.9673,,32.9692,32.9699,5.7145,,6.0423,6.1056,5.8119,,6.0794,6.1146,6.1101,249.072,262.8787,263.9636,253.315,274.1270,264.5545,264.2591,0.1174,,0.6393,0.4449,2.5834,,0.3234,,24.6485,,24.6474,,,,,,,,,,,13.8529,13.8506,0.1695,329.630,96.888,98.533,,,,,,,,,,,,
CalCOFI,2105SH,033,,2105_033d,11-May-2021 17:31:28,11-May-2021 09:31:28,32.81312,-123.90796,080.0 100.0,080.0,100.0,51.000,51.368,,13.7390,,13.7348,,13.7369,32.9812,,32.9824,32.9708,,32.9727,32.9776,5.7145,,6.0423,6.1056,5.8361,,6.1044,6.1396,6.1226,249.062,262.8682,263.9532,254.365,274.1162,265.6295,264.7914,0.1132,,0.6095,0.4261,2.5833,,0.3234,,24.6824,,24.6752,,,,,,,,,,,13.7318,13.7276,0.1728,326.422,96.656,98.699,51,13.843,,,264.04,0.384,0.178,0.23,0.038,0.13,0.37,1.25
CalCOFI,2105SH,033,,2105_033d,11-May-2021 17:31:29,11-May-2021 09:31:29,32.81311,-123.90796,080.0 100.0,080.0,100.0,52.000,52.375,,13.6123,,13.6129,,13.6126,32.9775,,32.9787,32.9733,,32.9752,32.9770,5.7607,,6.0906,6.1540,5.8546,,6.1236,6.1588,6.1564,251.072,264.9695,266.0370,255.165,276.2870,266.4486,266.2428,0.1129,,0.6073,0.4247,2.5832,,0.3234,,24.7054,,24.7020,,,,,,,,,,,13.6050,13.6057,0.1760,324.251,97.184,98.767,,,,,,,,,,,,
CalCOFI,2105SH,033,,2105_033d,11-May-2021 17:31:31,11-May-2021 09:31:31,32.81310,-123.90797,080.0 100.0,080.0,100.0,53.000,53.382,,13.6030,,13.6055,,13.6043,32.9753,,32.9765,32.9726,,32.9745,32.9755,5.7786,,6.1094,6.1728,5.8548,,6.1238,6.1590,6.1659,251.849,265.7817,266.8425,255.173,277.1261,266.4568,266.6497,0.1145,,0.6187,0.4319,2.5830,,0.3234,,24.7056,,24.7030,,,,,,,,,,,13.5956,13.5981,0.1793,324.254,97.465,98.755,,,,,,,,,,,,
CalCOFI,2105SH,033,,2105_033d,11-May-2021 17:31:32,11-May-2021 09:31:32,32.81309,-123.90798,080.0 100.0,080.0,100.0,54.000,54.390,,13.5804,,13.5822,,13.5813,32.9729,,32.9741,32.9697,,32.9716,32.9729,5.7877,,6.1189,6.1823,5.8576,,6.1267,6.1619,6.1721,252.246,266.1968,267.2541,255.293,277.5549,266.5797,266.9169,0.1124,,0.6038,0.4225,2.5829,,0.3234,,24.7083,,24.7055,,,,,,,,,,,13.5729,13.5747,0.1826,324.024,97.573,98.753,,,,,,,,,,,,
CalCOFI,2105SH,033,,2105_033d,11-May-2021 17:31:37,11-May-2021 09:31:37,32.81308,-123.90798,080.0 100.0,080.0,100.0,55.000,55.397,,13.5670,,13.5656,,13.5663,32.9710,,32.9722,32.9689,,32.9708,32.9715,5.7772,,6.1079,6.1713,5.8526,,6.1215,6.1567,6.1640,251.788,265.7180,266.7792,255.073,277.0602,266.3544,266.5668,0.1098,,0.5853,0.4109,2.5823,,0.3234,,24.7096,,24.7083,,,,,,,,,,,13.5594,13.5580,0.1860,323.923,97.368,98.634,,,,,,,,,,,,
CalCOFI,2105SH,033,,2105_033d,11-May-2021 17:31:38,11-May-2021 09:31:38,32.81307,-123.90799,080.0 100.0,080.0,100.0,56.000,56.404,,13.5050,,13.5000,,13.5025,32.9641,,32.9653,32.9581,,32.9600,32.9627,5.7806,,6.1115,6.1749,5.8623,,6.1316,6.1667,6.1708,251.935,265.8716,266.9316,255.496,277.2190,266.7875,266.8596,0.1084,,0.5753,0.4046,2.5820,,0.3234,,24.7168,,24.7132,,,,,,,,,,,13.4973,13.4923,0.1893,323.258,97.297,98.659,,,,,,,,,,,,